EW4164 Weather Reports


time (UTC)temp
C
wind
direction
speed
KPH
gust
KPH
rain 1hr
cm
rain 24hr
cm
rain mn
cm
humidity
%
barometer
mb
20260504021559 11 251 0.0 4.8 0.00 0.03 0.00 75 1014.5
20260504020229 11 89 1.6 3.2 0.00 0.03 0.00 74 1014.6
20260504020015 11 51 1.6 4.8 0.00 0.03 0.00 74 1014.5
20260504015219 11 235 1.6 4.8 0.00 0.03 0.00 74 1014.6
20260504014513 11 246 1.6 4.8 0.00 0.03 0.00 75 1014.5
20260504014217 11 220 1.6 4.8 0.00 0.03 0.00 75 1014.7
20260504013224 11 213 1.6 1.6 0.00 0.03 0.00 75 1014.7
20260504013016 10 222 0.0 1.6 0.00 0.03 0.00 75 1014.6
20260504012222 11 196 1.6 3.2 0.00 0.03 0.00 75 1014.8
20260504011507 11 229 0.0 3.2 0.00 0.03 0.00 75 1014.6
20260504011228 11 238 1.6 3.2 0.00 0.03 0.00 74 1014.8
20260504010218 11 234 1.6 3.2 0.00 0.03 0.00 73 1014.7
20260504010013 11 238 0.0 3.2 0.00 0.03 0.00 73 1014.6
20260504004517 11 224 1.6 4.8 0.00 0.03 0.00 72 1014.6
20260504004232 12 290 1.6 4.8 0.00 0.03 0.00 71 1014.6
20260504003220 11 228 1.6 4.8 0.00 0.03 0.00 72 1014.7
20260504003055 11 221 1.6 4.8 0.00 0.03 0.00 72 1014.6
20260504002220 11 224 1.6 4.8 0.00 0.03 0.00 73 1014.8
20260504001603 11 217 0.0 1.6 0.00 0.03 0.00 74 1014.6
20260504001210 11 217 0.0 1.6 0.00 0.03 0.00 74 1014.7
20260504000010 11 217 0.0 1.6 0.00 0.03 0.00 74 1014.6
20260503235227 12 217 0.0 1.6 0.00 0.03 0.00 74 1014.7
20260503234531 12 217 0.0 1.6 0.00 0.03 0.00 74 1014.5
20260503234218 12 217 0.0 1.6 0.00 0.03 0.00 74 1014.7
20260503233218 13 217 0.0 1.6 0.00 0.03 0.00 73 1014.7
20260503233106 12 217 0.0 1.6 0.00 0.03 0.00 73 1014.5
20260503232217 13 217 0.0 3.2 0.00 0.03 0.00 71 1014.7
20260503231607 13 217 0.0 3.2 0.00 0.03 0.00 71 1014.6
20260503231225 13 210 0.0 3.2 0.00 0.03 0.00 69 1014.7
20260503230226 14 180 1.6 4.8 0.00 0.03 0.00 67 1014.7
20260503230045 14 190 0.0 3.2 0.00 0.03 0.00 66 1014.6
20260503225217 15 159 1.6 4.8 0.00 0.03 0.00 64 1014.7
20260503224559 15 231 0.0 3.2 0.00 0.03 0.00 63 1014.5
20260503224223 15 231 1.6 4.8 0.00 0.03 0.00 62 1014.6
20260503223218 16 84 1.6 6.4 0.00 0.03 0.00 59 1014.6
20260503223050 15 92 1.6 4.8 0.00 0.03 0.00 58 1014.5
20260503222213 16 182 1.6 6.4 0.00 0.03 0.00 57 1014.7
20260503221603 16 112 1.6 4.8 0.00 0.03 0.00 53 1014.5
20260503220226 16 247 3.2 12.9 0.00 0.03 0.03 52 1014.6
20260503220052 16 227 1.6 11.3 0.00 0.03 0.00 52 1014.4
20260503215232 16 248 4.8 11.3 0.00 0.03 0.03 53 1014.5
20260503214522 16 227 1.6 9.7 0.00 0.03 0.03 53 1014.4
20260503214213 16 163 4.8 11.3 0.00 0.03 0.03 52 1014.5
20260503213226 16 214 4.8 16.1 0.00 0.03 0.03 52 1014.4
20260503213042 16 212 4.8 14.5 0.00 0.03 0.03 53 1014.3
20260503212220 16 222 4.8 12.9 0.00 0.03 0.03 53 1014.4
20260503211534 16 201 3.2 12.9 0.00 0.03 0.03 54 1014.2
20260503211221 16 201 4.8 12.9 0.00 0.03 0.03 54 1014.4
20260503210108 16 237 1.6 11.3 0.00 0.03 0.03 54 1014.3
20260503205213 16 212 3.2 6.4 0.00 0.03 0.03 54 1014.4
20260503204554 16 219 3.2 12.9 0.00 0.03 0.03 53 1014.3
20260503204221 16 265 3.2 6.4 0.00 0.03 0.03 54 1014.4
20260503203219 16 225 4.8 9.7 0.00 0.03 0.03 54 1014.5
20260503203007 16 229 3.2 8.0 0.00 0.03 0.03 54 1014.4
20260503202215 16 187 1.6 6.4 0.00 0.03 0.03 56 1014.5
20260503201514 16 243 0.0 4.8 0.00 0.03 0.03 56 1014.3
20260503200214 16 217 1.6 6.4 0.00 0.03 0.03 56 1014.5
20260503200111 16 243 0.0 4.8 0.00 0.03 0.03 56 1014.4
20260503194519 16 144 1.6 8.0 0.00 0.03 0.03 54 1014.4
20260503194226 16 149 3.2 9.7 0.00 0.03 0.03 53 1014.5
20260503193217 17 242 3.2 8.0 0.00 0.03 0.03 52 1014.4
20260503193037 17 193 1.6 8.0 0.00 0.03 0.03 51 1014.2
20260503192222 17 217 3.2 16.1 0.00 0.03 0.03 50 1014.4
20260503191509 17 254 3.2 14.5 0.00 0.03 0.03 51 1014.0
20260503190239 17 301 4.8 12.9 0.00 0.03 0.03 50 1014.5
20260503190042 17 244 6.4 9.7 0.00 0.03 0.03 50 1014.3
20260503185231 17 44 4.8 17.7 0.00 0.03 0.03 49 1014.5
20260503184510 17 211 4.8 16.1 0.00 0.03 0.03 48 1014.4
20260503183208 17 234 6.4 16.1 0.00 0.03 0.03 47 1014.5
20260503183037 17 188 4.8 16.1 0.00 0.03 0.03 47 1014.3
20260503182217 18 256 8.0 20.9 0.00 0.03 0.03 46 1014.5
20260503181601 17 221 6.4 16.1 0.00 0.03 0.03 45 1014.2
20260503181226 18 186 8.0 24.1 0.00 0.03 0.03 45 1014.4
20260503180230 18 236 9.7 24.1 0.00 0.03 0.03 43 1014.2
20260503180052 18 261 11.3 27.4 0.00 0.03 0.03 43 1014.1
20260503174555 18 178 9.7 25.7 0.00 0.03 0.03 40 1014.1
20260503174224 18 211 8.0 19.3 0.00 0.03 0.03 40 1014.2
20260503173051 18 244 4.8 17.7 0.00 0.03 0.03 39 1014.0
20260503172224 19 224 9.7 22.5 0.00 0.03 0.03 39 1014.3
20260503171540 18 196 8.0 20.9 0.00 0.03 0.03 39 1014.0
20260503170232 19 195 9.7 30.6 0.00 0.03 0.03 39 1014.1
20260503150221 23 230 3.2 9.7 0.00 0.03 0.03 39 1013.1
20260503140219 23 239 6.4 12.9 0.00 0.03 0.03 37 1013.6
20260503131208 24 200 3.2 16.1 0.00 0.03 0.03 44 1013.8
20260503130216 24 174 4.8 9.7 0.00 0.03 0.03 46 1014.0
20260503110215 21 163 4.8 9.7 0.00 0.03 0.03 53 1014.8
20260503100220 22 46 3.2 11.3 0.00 0.03 0.03 43 1015.2
20260503081547 18 254 1.6 6.4 0.00 0.03 0.03 61 1015.3
20260503081220 18 274 3.2 11.3 0.00 0.03 0.03 60 1015.8
20260503080216 18 238 3.2 14.5 0.00 0.03 0.03 63 1015.9
20260503072209 19 153 4.8 14.5 0.00 0.03 0.03 54 1015.9
20260503071525 19 170 1.6 9.7 0.00 0.03 0.03 40 1015.3
20260503071230 19 201 6.4 17.7 0.00 0.03 0.03 38 1015.5
20260503070218 19 237 9.7 16.1 0.00 0.03 0.03 38 1015.4
20260503070104 19 281 6.4 25.7 0.00 0.03 0.03 37 1015.0
20260503060244 16 206 3.2 11.3 0.00 0.03 0.03 49 1015.9
20260503060114 16 149 4.8 14.5 0.00 0.03 0.03 51 1015.5
20260503054506 15 273 1.6 6.4 0.00 0.03 0.03 65 1015.7
20260503054206 15 229 1.6 3.2 0.00 0.03 0.03 64 1016.1
20260503053221 15 241 1.6 11.3 0.00 0.03 0.03 67 1016.2
20260503053106 15 214 0.0 4.8 0.00 0.03 0.03 67 1015.8
20260503052215 15 219 3.2 11.3 0.00 0.03 0.03 62 1016.3
20260503051559 15 203 1.6 9.7 0.03 0.03 0.03 56 1015.8
20260503051218 15 227 1.6 9.7 0.03 0.03 0.03 59 1016.0
20260503050220 14 221 1.6 4.8 0.03 0.03 0.03 63 1015.7
20260503050059 14 232 1.6 6.4 0.03 0.03 0.03 63 1015.3
20260503045219 13 194 1.6 4.8 0.03 0.03 0.03 67 1015.7
20260503044511 13 162 0.0 1.6 0.03 0.03 0.03 74 1015.3
20260503044218 13 126 1.6 3.2 0.03 0.03 0.03 73 1015.5
20260503043231 13 236 1.6 3.2 0.03 0.03 0.03 72 1015.5
20260503043011 13 223 1.6 3.2 0.03 0.03 0.03 74 1015.1
20260503042208 14 224 0.0 6.4 0.00 0.00 0.00 75 1015.6
20260503041514 14 214 0.0 6.4 0.00 0.00 0.00 71 1015.3
20260503041227 15 202 1.6 4.8 0.00 0.00 0.00 68 1015.5
20260503040027 15 234 0.0 3.2 0.00 0.00 0.00 64 1015.1
20260503035209 15 346 1.6 3.2 0.00 0.00 0.00 58 1015.4
20260503034529 15 97 0.0 3.2 0.00 0.00 0.00 58 1015.0
20260503034217 15 184 0.0 3.2 0.00 0.00 0.00 58 1015.4
20260503033210 15 340 0.0 4.8 0.00 0.00 0.00 57 1014.9
20260503033004 14 317 0.0 1.6 0.00 0.00 0.00 57 1014.8
20260503032214 15 240 1.6 4.8 0.00 0.00 0.00 59 1015.2
20260503031550 14 231 0.0 3.2 0.00 0.00 0.00 60 1015.1
20260503030212 15 201 1.6 4.8 0.00 0.00 0.00 58 1015.6
20260503030051 15 206 0.0 3.2 0.00 0.00 0.00 58 1015.3
20260503025221 15 212 1.6 4.8 0.00 0.00 0.00 56 1015.6
20260503024550 15 86 1.6 4.8 0.00 0.00 0.00 54 1015.2
20260503024221 15 179 0.0 3.2 0.00 0.00 0.00 54 1015.6
20260503023220 15 219 1.6 3.2 0.00 0.00 0.00 53 1015.6
20260503023039 15 219 1.6 3.2 0.00 0.00 0.00 53 1015.3